RH
7 4 3 2 2 2 2 3 2 2 9 21 34 36 46 79 98 100 97 100 100 90 74 33 20 24 45 45 57 61 48 38 34 33 34 42 44 46 63 74 69 73 68 60 52 46 36 29 25 66 94 91 76 70
4 4 3 3 3 3 3 3 2 3 5 20 33 30 46 68 87 100 99 100 97 100 100 84 57 22 33 48 65 64 54 44 33 34 36 37 44 44 40 42 51 50 49 45 42 28 21 21 50 93 99 97 76 76
4 4 4 4 4 4 4 3 3 4 7 36 62 66 47 60 83 100 100 100 100 100 100 99 96 78 29 51 61 74 61 49 38 40 40 35 28 35 43 46 44 43 46 41 26 24 34 54 85 100 97 78 77 74
6 4 4 5 5 5 5 3 6 5 19 66 56 71 64 74 97 96 100 100 90 53 25 18 50 98 71 53 77 75 70 56 49 44 31 36 36 35 42 62 74 74 59 46 34 29 40 58 92 98 92 75 75 72
4 4 5 6 6 6 5 4 7 5 50 66 59 95 100 99 97 84 57 20 9 5 3 2 3 28 88 44 78 74 81 63 52 47 32 32 45 48 41 47 88 95 86 64 59 43 46 65 96 97 81 74 71 65
5 4 5 5 6 6 5 11 7 20 73 67 68 100 100 100 74 21 8 6 5 3 28 36 32 37 46 52 84 92 97 77 49 46 39 37 69 61 49 48 84 87 82 75 64 48 49 54 95 95 87 70 52 46
10 6 8 5 6 6 8 22 16 47 81 71 79 100 100 79 11 8 10 28 56 76 96 99 100 61 57 98 91 98 98 76 56 51 54 69 78 65 45 46 75 77 70 70 66 62 52 44 74 92 81 65 56 55
10 10 7 7 7 9 42 34 52 68 85 63 91 100 90 13 13 15 53 89 100 97 97 100 100 100 94 92 98 92 75 63 62 70 70 86 82 65 51 81 70 70 76 63 60 61 57 50 49 87 80 72 67 69
10 10 13 10 14 52 85 67 69 70 56 61 99 92 19 17 18 29 54 59 68 87 84 100 99 100 90 94 82 79 72 76 78 82 93 91 88 96 100 97 92 82 76 72 63 58 58 57 43 63 83 77 73 69
9 34 39 46 93 100 95 100 99 72 62 69 100 32 30 36 32 54 57 47 53 69 93 100 100 100 90 88 89 88 83 88 86 97 99 100 100 98 94 90 86 84 78 70 58 51 51 54 50 45 78 89 83 75
29 100 78 100 100 78 73 99 85 64 78 89 97 32 48 52 48 61 61 62 63 72 79 91 92 97 90 93 95 87 93 96 96 100 100 100 100 100 100 99 90 87 87 81 66 55 49 50 51 47 56 87 95 92
97 76 98 100 100 76 76 96 79 80 70 100 92 40 57 59 52 70 76 76 76 84 87 91 98 100 100 100 100 100 99 98 100 100 100 100 100 100 100 100 94 88 92 98 93 78 60 52 52 54 46 62 89 95
86 92 100 100 100 88 96 99 96 66 76 100 96 41 66 78 69 72 73 82 86 91 88 100 100 100 99 98 100 100 100 100 97 96 89 95 100 100 100 100 97 100 82 91 97 92 89 77 65 59 54 61 78 93
100 100 100 100 100 98 95 83 75 55 91 100 96 45 62 74 54 71 87 87 78 75 82 87 83 81 87 83 79 82 76 77 89 81 74 56 69 94 100 100 100 100 96 100 100 100 100 83 78 69 67 71 83 96
100 100 100 100 100 98 91 69 61 52 92 100 100 61 51 71 54 74 83 63 58 59 65 62 58 54 52 46 48 48 49 45 53 56 63 62 57 44 48 69 98 100 100 99 98 100 100 100 100 96 72 63 65 70
100 100 100 100 96 73 65 44 30 69 98 100 100 92 61 76 63 64 83 68 60 54 54 51 45 44 45 41 40 38 36 54 58 52 49 48 51 47 43 42 46 57 83 100 100 100 100 100 100 100 100 100 100 99
100 100 100 88 70 64 51 29 77 100 100 95 100 98 53 87 80 60 65 71 64 59 52 46 47 50 44 42 41 40 48 47 42 45 41 40 36 35 34 32 32 36 37 39 43 53 93 100 100 100 100 100 100 100
100 98 83 68 55 51 53 80 100 100 100 100 100 100 68 62 94 80 65 58 63 63 55 50 46 44 43 42 50 57 43 42 42 42 41 42 41 38 35 31 26 23 21 23 25 26 28 34 43 72 92 98 100 100
94 76 65 59 69 68 80 98 100 100 100 100 100 100 100 62 65 82 81 72 58 51 47 44 39 39 48 55 46 29 25 23 26 28 29 30 27 25 23 19 14 14 13 12 12 12 10 12 17 23 28 30 30 30
81 78 86 91 91 100 100 100 100 100 100 100 100 100 100 99 62 60 67 64 58 50 42 38 44 50 39 18 13 14 13 13 12 11 12 14 15 12 10 13 16 14 14 15 16 17 16 16 16 16 15 16 16 17
100 99 93 100 99 99 100 100 100 100 100 100 100 100 100 100 100 67 36 40 45 47 45 28 21 19 18 18 19 19 21 24 26 23 21 20 19 17 16 14 14 13 13 12 12 12 13 16 18 19 19 18 16 15
100 99 99 98 100 100 100 100 100 100 100 100 100 100 100 100 100 100 98 61 34 34 26 23 23 24 30 32 32 33 30 28 26 25 23 21 20 20 20 21 21 21 22 23 25 27 30 31 29 25 24 25 24 23
71 66 58 76 75 83 90 99 100 100 100 100 100 100 100 100 100 100 99 100 100 98 92 90 89 87 89 95 98 88 75 61 46 39 36 30 26 24 23 22 21 23 31 38 38 34 32 34 39 43 41 36 32 27
31 29 26 26 31 32 53 58 70 90 99 100 100 100 100 100 100 100 100 100 98 97 99 100 100 98 99 100 98 94 94 93 92 88 90 91 77 56 44 37 38 43 61 72 72 82 69 56 54 53 50 45 42 42
40 43 41 40 36 33 30 27 23 20 32 62 94 100 100 100 100 100 100 100 100 100 100 100 100 97 97 96 96 98 98 94 96 97 95 92 93 92 88 83 77 82 92 100 100 96 82 72 67 63 59 56 53 50
55 50 48 46 40 34 30 26 24 26 26 19 14 29 76 98 100 100 100 100 100 100 100 100 100 95 92 93 93 95 96 98 100 98 97 100 100 100 99 98 100 95 100 100 100 100 95 90 83 77 73 69 62 53
67 66 63 50 41 34 26 21 20 20 19 21 24 19 13 21 61 79 82 86 91 85 78 78 81 82 81 82 82 85 89 94 97 96 96 100 100 100 100 100 99 99 99 96 97 99 100 95 90 86 78 69 58 49
60 66 76 71 59 47 34 28 27 27 26 23 17 19 22 18 15 22 44 46 44 51 60 68 71 74 78 78 80 84 86 90 92 94 94 95 92 88 89 96 98 100 100 100 100 99 97 94 92 79 66 56 46 37
73 76 83 76 69 58 48 39 37 37 34 26 22 18 14 21 21 15 19 45 66 68 66 70 81 80 77 73 77 85 91 93 95 100 100 96 89 85 88 95 98 99 100 100 97 94 87 74 61 47 30 22 22 24
89 87 80 69 57 48 48 47 44 38 29 24 20 17 14 13 21 20 15 15 39 68 71 84 91 90 86 85 88 88 91 94 94 92 90 91 91 93 92 93 93 91 88 81 68 52 36 27 24 24 25 22 18 15
70 79 82 78 68 61 55 48 40 34 27 20 17 14 13 12 13 20 19 16 30 82 88 86 85 87 90 93 91 90 87 81 82 82 88 93 94 96 100 97 84 67 46 30 26 26 24 19 16 16 19 21 19 14
30 29 30 29 28 27 27 27 29 29 25 22 19 16 11 10 10 18 20 20 18 52 79 85 92 95 92 88 84 83 82 83 88 90 97 99 95 85 71 51 31 28 27 22 19 18 20 22 23 18 10 8 12 18
24 20 21 25 29 29 28 25 20 18 18 16 14 11 9 8 8 16 18 24 33 37 60 82 93 97 94 93 93 94 94 96 99 100 91 78 56 36 30 25 20 20 20 20 24 22 15 11 19 40 46 46 44 34
Wind_Speed
53 54 53 52 53 53 51 49 37 34 36 40 37 31 29 28 27 31 31 30 30 27 33 32 31 31 27 26 28 26 24 21 18 15 15 16 17 17 18 19 20 23 24 24 23 20 21 19 18 16 16 15 12 11
50 51 56 54 55 53 49 46 36 34 38 38 36 32 30 30 31 31 34 32 33 36 32 35 37 34 34 33 31 30 27 21 17 14 13 12 12 14 17 18 21 20 20 21 21 21 19 18 18 17 16 16 13 12
53 56 58 58 55 52 49 41 36 34 38 35 34 36 32 28 33 28 31 35 40 41 39 41 39 43 42 38 39 31 28 23 18 15 12 11 12 12 14 17 19 20 20 19 19 18 17 17 19 18 18 17 15 14
52 56 63 61 56 51 49 40 33 33 37 34 36 36 30 30 29 25 30 39 44 47 49 49 53 52 48 46 40 33 28 24 20 16 14 14 15 15 17 18 17 17 18 18 17 18 19 19 21 19 19 19 15 14
55 58 64 62 54 47 45 38 30 33 34 33 36 30 30 26 23 27 34 42 45 41 32 30 37 53 47 42 36 30 31 25 21 17 15 18 19 20 21 21 16 18 15 15 18 20 21 22 21 21 20 18 15 14
59 59 62 57 49 42 39 32 29 32 31 32 33 30 23 22 26 32 34 26 15 1 15 15 13 19 32 34 35 29 31 26 21 18 19 21 22 25 24 21 19 20 18 18 19 24 23 25 24 21 21 19 15 13
70 58 59 55 41 36 30 27 29 31 30 31 32 25 21 23 24 17 8 13 22 23 19 14 11 24 29 34 33 27 23 24 22 22 22 22 24 26 22 16 23 24 21 19 21 24 25 27 27 24 24 21 16 14
74 68 54 41 31 28 23 27 27 29 28 29 29 19 19 15 6 2 29 22 19 19 22 18 15 24 27 27 27 24 24 23 23 21 21 22 23 22 13 18 24 24 23 21 22 25 26 28 30 29 28 25 20 18
71 64 44 31 27 24 26 27 24 22 25 27 22 13 8 6 10 21 21 19 17 19 19 19 15 14 19 20 19 18 19 19 20 21 21 22 19 18 19 23 23 24 24 22 22 25 27 29 31 32 31 30 26 23
63 39 29 24 20 24 27 27 22 23 26 22 17 10 17 20 18 17 16 14 13 13 12 13 15 15 15 16 16 16 19 20 19 17 17 17 15 15 18 19 21 22 23 24 24 25 28 28 31 33 33 32 29 26
38 36 28 29 25 25 29 23 21 21 18 17 16 21 24 22 19 18 18 18 18 18 15 14 13 12 11 12 14 16 16 16 14 14 13 9 10 9 11 14 16 18 19 21 24 24 26 29 30 32 33 32 30 28
37 32 36 29 24 28 29 24 24 25 19 18 23 28 28 25 23 21 21 21 21 19 16 11 10 11 13 13 12 15 14 14 14 14 12 8 7 5 7 9 12 13 14 16 17 19 22 26 27 29 31 30 29 29
34 29 27 29 31 30 26 26 27 25 18 19 28 34 32 29 27 24 23 22 20 17 15 14 9 9 10 8 7 5 5 7 10 6 4 6 4 4 4 5 7 8 9 10 9 9 14 20 23 25 28 28 26 26
31 29 31 35 36 31 26 26 27 24 19 20 32 39 40 33 27 27 26 24 22 21 20 17 13 11 10 9 9 8 7 7 5 5 5 3 4 5 5 5 5 8 9 9 9 7 8 11 16 21 24 24 24 24
23 26 31 31 31 30 27 25 27 26 22 22 34 41 44 35 33 32 28 25 22 21 20 18 15 13 11 7 6 6 8 9 9 10 11 10 8 7 6 5 3 3 7 11 11 14 14 11 13 17 21 23 24 26
27 30 30 30 27 25 25 27 26 26 24 25 33 40 43 41 37 34 32 29 26 25 24 21 18 15 13 11 9 10 10 10 13 14 14 13 12 10 9 8 8 8 7 7 11 16 15 15 15 18 19 22 22 23
25 24 20 21 23 25 25 25 26 26 26 25 32 40 44 44 40 38 35 31 30 30 29 27 24 21 19 18 18 19 17 18 19 18 17 15 14 15 15 15 15 14 12 12 11 12 12 13 19 23 21 17 17 18
18 17 17 16 18 21 24 25 26 26 25 27 32 39 41 47 46 44 40 36 34 33 32 33 32 32 30 28 27 30 26 26 27 25 24 24 24 26 26 26 25 24 23 22 21 20 19 19 18 18 19 22 25 25
17 16 13 13 17 20 22 21 22 24 27 30 33 37 42 44 48 46 44 42 40 38 38 37 37 31 29 31 33 31 29 29 28 29 30 31 32 32 31 30 27 26 26 24 23 21 21 23 24 25 24 25 25 26
15 12 11 12 13 13 13 14 15 17 21 25 31 35 39 42 41 46 46 44 43 41 39 34 31 31 31 29 21 14 13 13 15 15 15 16 17 17 18 19 17 15 15 17 17 18 17 16 16 16 17 19 20 21
12 10 10 8 6 5 4 2 5 10 15 19 25 30 35 39 40 40 39 43 44 40 35 31 32 35 29 23 19 18 16 16 17 17 16 16 15 15 16 16 16 16 17 17 17 17 17 18 18 18 18 19 20 22
15 15 14 11 9 7 4 4 2 1 4 10 17 24 29 33 36 37 38 38 31 26 28 31 31 30 26 24 23 23 24 24 23 23 23 23 22 22 22 22 22 22 23 23 24 25 26 26 26 27 27 26 26 26
14 13 12 11 9 10 11 10 9 6 2 2 5 10 18 25 30 32 34 33 33 33 36 36 35 34 31 30 29 29 29 29 27 26 27 27 27 28 28 28 29 29 29 30 31 32 34 33 33 33 33 34 34 34
15 13 10 8 7 7 8 7 8 10 12 11 8 7 8 12 17 22 26 29 31 31 31 31 30 29 30 31 32 32 31 31 32 33 33 33 34 33 33 33 34 34 34 35 37 38 37 36 36 36 37 38 39 39
15 12 10 9 7 7 8 8 9 10 10 11 14 14 12 12 13 14 17 19 22 24 26 27 28 29 30 31 32 32 32 33 33 34 34 35 36 36 38 39 40 40 40 40 39 39 39 39 39 40 41 42 42 44
17 15 14 13 13 13 13 11 10 10 12 13 14 14 16 18 18 17 16 16 18 20 21 23 24 25 27 28 29 30 31 32 34 35 35 37 38 39 40 40 40 41 40 40 40 41 42 42 43 44 45 46 47 48
22 21 20 20 20 20 19 17 15 14 13 14 17 19 18 19 22 23 22 23 22 23 23 24 26 27 28 29 30 30 31 33 34 36 36 37 37 38 38 39 40 41 41 43 43 43 44 45 46 46 47 49 49 49
26 25 27 28 28 28 27 26 24 24 23 24 20 21 22 22 22 25 25 25 25 25 25 26 27 28 30 31 32 33 34 34 35 35 35 35 36 35 35 38 40 41 41 41 42 43 44 46 47 48 49 50 52 53
31 31 32 32 33 34 33 32 32 33 33 35 34 28 24 26 27 27 28 28 27 27 27 27 28 29 30 31 32 32 32 32 30 31 31 32 34 34 35 37 38 40 41 43 44 44 46 47 49 50 51 53 56 60
37 39 40 41 41 41 42 44 42 41 41 43 42 38 32 26 31 32 30 32 32 31 29 27 27 29 29 30 30 31 31 30 30 30 30 31 32 33 35 37 39 40 40 42 44 47 48 49 52 56 60 62 62 62
47 48 51 52 52 52 53 53 53 52 52 52 50 46 41 38 35 36 33 32 33 32 29 27 26 27 28 29 29 29 29 29 29 30 30 30 30 31 34 36 38 40 42 44 47 50 55 58 60 59 59 60 62 62
54 54 56 61 63 66 67 66 65 63 62 61 60 57 49 42 39 38 32 33 34 34 28 24 24 25 26 27 28 28 28 27 26 27 26 27 30 33 36 38 40 43 48 52 55 56 56 56 59 61 59 54 51 48
55 59 59 54 55 63 68 74 79 77 74 71 64 53 45 41 40 36 31 34 34 30 26 22 22 24 26 26 24 22 22 22 22 24 27 30 33 35 39 43 47 52 53 53 53 56 56 51 46 45 45 43 42 37
Wind_Direction
299 298 298 300 301 302 306 312 318 313 306 306 308 306 279 278 277 264 252 256 260 249 244 251 248 246 242 237 239 242 245 251 255 242 233 230 229 229 231 232 232 233 236 241 243 243 246 241 238 230 231 236 240 235
296 297 295 295 297 300 304 310 313 309 303 303 304 303 283 278 277 269 256 259 261 261 252 246 246 245 242 236 236 238 238 246 244 238 235 237 233 236 234 236 237 238 235 237 238 239 238 230 230 227 231 237 239 234
295 293 293 293 293 297 301 306 309 302 299 303 307 300 287 279 285 267 258 263 267 265 259 256 248 241 237 232 230 229 232 236 236 240 237 238 245 248 245 244 242 239 237 239 238 236 231 222 223 228 231 233 235 237
298 289 288 289 290 295 297 302 304 298 297 304 306 301 288 288 283 271 268 270 273 276 273 260 245 234 230 223 221 223 226 229 233 236 249 260 263 262 248 243 243 243 239 237 236 234 231 226 225 226 232 235 235 236
292 285 283 287 289 292 294 298 292 294 293 304 310 295 293 289 280 281 285 288 290 290 284 260 241 228 224 215 214 220 219 223 234 236 252 262 268 264 255 244 238 246 245 243 234 238 232 228 225 228 231 229 234 241
295 283 293 290 286 285 290 290 287 286 290 303 307 296 289 287 289 295 297 307 313 73 89 85 152 187 202 197 206 218 211 222 235 244 257 259 263 265 257 244 239 243 243 242 236 235 230 230 226 225 223 225 230 245
313 296 302 291 280 279 286 278 278 282 291 308 303 293 287 293 297 302 326 119 102 99 104 104 141 160 173 188 202 211 212 228 240 245 250 258 265 263 256 234 235 246 249 243 238 238 236 231 226 225 222 223 226 240
304 303 288 275 267 267 260 268 275 277 292 303 302 284 291 295 312 295 135 125 118 137 138 133 154 163 169 187 200 215 220 225 231 241 250 258 258 251 243 251 248 249 253 250 242 237 236 232 229 228 225 228 232 244
292 294 267 248 249 249 257 265 273 284 303 297 293 276 264 166 136 152 141 141 140 130 140 136 140 160 178 191 196 205 211 219 239 253 258 248 249 259 255 250 252 255 254 248 242 238 236 236 231 228 229 233 240 247
285 250 232 233 232 256 256 264 276 287 298 295 276 210 168 148 153 150 147 153 163 165 160 162 166 169 179 190 198 208 225 239 249 248 247 253 264 259 254 251 250 253 254 253 248 242 233 236 236 230 231 234 240 247
237 220 215 224 247 250 255 263 271 284 287 286 233 186 175 167 178 173 169 165 166 167 172 174 175 182 192 201 214 221 225 232 239 253 264 276 279 272 244 246 246 247 250 249 248 243 233 233 237 236 233 235 240 246
209 201 215 236 236 243 253 252 264 278 282 270 208 194 192 188 199 193 183 175 172 166 167 169 174 192 203 209 204 216 228 241 254 264 272 283 305 291 235 247 256 256 249 242 242 241 236 234 238 237 236 236 240 247
194 206 222 230 230 239 245 254 263 280 270 259 204 201 202 198 202 196 182 173 175 177 177 182 172 160 156 154 168 196 222 232 254 273 302 316 275 285 272 297 268 245 240 226 230 249 242 235 236 235 234 237 242 250
199 214 219 233 233 232 241 262 265 274 263 244 208 204 204 199 192 187 185 193 196 198 198 200 206 212 217 233 241 252 248 257 246 263 286 326 318 304 305 302 311 230 229 230 247 262 271 252 242 235 234 237 247 257
216 228 225 220 220 231 246 256 266 269 261 240 215 206 209 199 193 196 197 195 199 202 207 212 211 211 223 238 257 271 272 275 271 269 268 274 283 293 291 311 314 299 252 249 258 271 271 259 241 245 245 245 253 261
230 222 217 214 221 234 248 264 263 254 255 240 222 212 210 206 202 204 206 204 205 206 210 214 217 223 231 247 266 283 284 288 274 274 271 271 279 286 295 297 291 287 290 271 249 246 250 249 243 234 246 255 259 262
204 201 204 223 243 258 265 259 248 243 248 241 221 217 212 211 208 207 210 214 216 218 220 222 225 235 247 262 282 286 271 262 261 264 268 271 275 285 290 291 286 280 276 272 275 281 270 242 237 239 244 246 245 246
203 208 218 233 252 252 249 246 240 239 246 232 221 220 214 215 215 214 217 219 225 228 232 235 241 250 261 272 279 278 266 257 258 261 266 270 274 278 281 283 285 281 275 272 271 267 263 263 267 269 262 256 255 255
195 210 224 250 247 246 243 245 241 241 237 227 219 219 219 218 221 223 226 229 233 236 243 246 252 261 273 270 266 259 255 256 257 259 261 263 265 270 276 281 279 272 269 268 268 268 267 263 260 257 258 261 267 269
207 214 220 224 232 237 234 231 234 235 233 229 224 220 220 223 224 227 230 234 238 242 245 251 262 262 256 252 255 254 255 259 263 263 259 258 258 257 258 269 272 273 272 271 269 274 271 268 270 271 270 269 270 271
179 187 187 179 169 171 171 205 237 240 234 231 226 225 225 225 226 229 233 237 241 247 253 251 246 246 245 250 256 251 251 254 257 258 259 259 258 262 268 271 268 267 265 266 266 267 270 274 274 272 276 277 280 283
187 189 191 197 194 196 178 147 122 139 223 227 226 226 226 228 230 233 236 240 242 242 240 240 243 249 252 253 254 255 257 258 258 259 260 260 261 263 265 264 264 267 270 273 274 274 275 274 275 276 277 277 278 281
185 193 197 215 223 234 236 232 227 208 211 220 213 220 226 229 233 235 237 238 242 242 244 246 249 253 256 258 258 257 258 262 266 266 265 265 265 265 264 264 264 265 268 271 274 275 276 277 278 279 279 279 280 280
180 181 186 190 205 224 240 250 263 270 253 233 214 210 219 224 228 233 236 238 239 240 242 245 246 248 249 250 252 254 258 260 260 262 265 266 266 267 267 267 268 268 269 273 278 278 275 274 275 276 276 276 276 277
199 199 204 203 212 237 247 257 259 258 259 267 258 240 225 219 224 229 232 233 235 236 238 240 243 246 248 250 252 254 256 258 261 263 264 266 266 267 269 271 271 272 275 277 277 276 276 276 276 276 275 276 277 277
225 221 218 224 239 250 257 258 259 261 262 260 252 252 252 246 241 239 239 240 241 242 241 242 244 246 248 250 253 256 257 259 260 262 264 266 268 268 269 270 271 271 272 273 274 275 275 275 276 276 277 278 278 277
240 242 237 237 243 248 253 252 255 269 272 268 260 254 247 249 247 246 244 246 249 252 254 254 252 253 255 258 259 260 262 264 265 266 267 268 270 272 273 275 276 277 277 276 276 276 276 277 277 277 278 278 278 278
249 249 244 243 246 249 250 255 264 273 279 283 283 268 259 254 255 248 245 244 244 247 252 255 255 256 257 259 261 264 265 267 268 270 272 273 274 277 280 280 280 279 278 278 278 279 279 280 281 281 281 282 283 283
256 252 248 251 253 253 253 257 262 268 272 276 274 275 274 260 257 255 251 247 247 247 248 251 257 260 263 264 266 269 270 270 271 271 272 273 276 276 276 278 280 281 282 282 281 281 282 282 283 285 286 286 286 286
254 253 253 253 255 256 258 260 262 265 269 274 274 272 272 274 253 252 254 251 249 250 251 254 260 263 263 264 267 269 268 268 269 271 272 272 275 279 282 284 284 284 284 284 287 289 289 289 289 289 288 288 288 288
260 258 258 258 258 259 259 260 263 265 267 271 272 273 273 272 254 245 248 253 248 246 250 254 259 264 266 267 267 268 271 273 274 275 278 281 284 286 286 286 287 289 291 292 292 293 292 292 291 291 290 290 290 290
272 271 271 266 264 262 262 262 263 263 266 269 273 275 270 266 250 232 237 250 251 242 245 257 263 265 266 267 269 269 271 274 277 279 283 286 287 289 291 292 294 295 295 295 295 295 295 294 293 293 294 292 290 287
277 278 277 277 270 266 262 261 262 262 263 266 269 268 262 252 238 225 226 237 243 240 241 254 259 261 265 266 267 269 271 275 280 285 288 291 294 296 297 297 297 298 299 300 299 298 298 298 296 295 293 290 289 289